SCP
0 0 0 0 0 0 0 0 0 0 0 0 0 0 0 0 0 0 0 0 0 -0 0 0 0 0 0 0 0 0 0 1 1 1 0 0 0 1 1 1 1 1 0 0
0 0 0 0 0 0 0 0 0 0 0 0 0 0 0 0 0 0 0 0 0 0 0 0 0 0 0 0 0 0 0 1 1 0 0 0 0 0 0 1 1 1 0 0
0 0 0 0 0 0 0 0 0 0 0 0 0 0 0 0 0 0 0 0 0 0 0 0 0 0 0 0 0 0 0 0 0 0 1 1 1 1 0 1 1 1 0 0
0 0 0 0 0 0 0 0 0 0 0 0 0 0 0 0 0 0 0 0 0 0 0 0 0 0 0 0 0 0 0 0 0 0 0 0 0 0 0 1 0 1 0 0
0 0 0 0 0 0 0 0 0 0 0 0 0 0 -0 0 0 -0 0 0 0 0 0 0 0 0 0 0 0 0 0 0 0 0 0 0 0 0 0 0 0 0 0 0
0 0 0 0 0 0 0 0 0 0 0 0 0 0 0 0 -0 -0 0 0 0 0 0 0 0 0 0 0 0 0 0 0 0 0 0 0 1 0 0 0 0 0 0 0
0 0 0 0 0 0 0 0 0 0 0 0 0 0 -0 -0 -0 0 0 0 0 0 0 0 0 0 0 0 0 0 0 0 0 0 0 0 0 0 0 0 0 0 0 0
0 0 0 0 0 0 0 0 0 0 0 0 0 0 -0 0 -0 -0 0 0 0 0 0 0 0 0 0 -0 -0 -0 0 0 0 0 0 0 0 0 0 0 0 0 0 -0
0 0 0 0 0 0 0 0 0 0 0 0 0 0 0 -0 -0 -0 0 0 0 0 0 0 0 0 -0 -0 -0 -0 -0 -0 0 0 0 0 0 0 0 0 0 0 0 -0
0 0 0 0 0 0 0 0 0 0 0 0 0 0 0 0 0 0 0 0 0 -0 -0 0 0 -0 -0 -0 -0 -0 -0 -0 -0 -0 0 0 0 0 0 0 0 -0 -0 -0
0 0 0 0 0 0 0 0 0 0 0 0 0 -0 0 0 0 0 0 0 -0 -0 -0 0 -0 -0 -0 -0 -0 -0 -0 -0 -0 0 0 0 0 0 0 0 -0 -0 -0 -0
0 0 0 0 0 0 0 0 0 0 0 0 0 0 0 0 0 0 0 0 -0 -0 -0 -0 -0 -0 -0 -0 -0 -0 -0 -0 -0 0 0 0 0 0 0 0 -0 0 0 -0
0 0 0 0 0 0 0 0 0 0 0 0 0 0 0 0 0 0 0 0 -0 -0 -0 -0 -0 -0 -0 -0 -0 -0 -0 -0 -0 -0 -0 -0 0 0 0 -0 -0 -0 -0 0
0 0 0 0 0 0 0 0 0 0 0 0 0 0 0 0 0 0 0 0 -0 -0 -0 -0 -0 -0 -0 -0 -0 -0 -0 -0 -0 -0 -0 -0 0 0 0 -0 0 -0 0 0
0 0 0 0 0 0 0 0 0 0 0 0 0 0 0 0 0 0 0 0 0 -0 -0 -0 -0 -0 -0 -0 -0 -0 -0 -0 -0 -0 -0 -0 0 0 -0 -0 0 0 0 0
0 0 0 0 0 0 0 0 0 0 0 0 0 0 0 0 0 0 0 0 -0 -0 -0 -0 -0 -0 -0 -0 -0 -0 -0 -0 -0 -0 -0 0 -0 -0 -0 -0 -0 0 0 -0
0 0 0 0 0 0 0 0 0 0 0 0 0 0 0 0 0 0 0 0 0 -0 -0 -0 -0 -0 -0 -0 -0 -0 -0 -0 -0 -0 -0 0 -0 -0 -0 -0 -0 -0 0 0
0 0 0 0 0 0 0 0 0 0 0 0 0 0 0 -0 -0 0 0 0 0 -0 -0 -0 -0 -0 -0 -0 -0 -0 -0 -0 -0 -0 -0 0 -0 0 -0 0 0 0 0 0
0 0 0 0 0 0 0 0 0 0 0 0 0 0 0 -0 0 0 0 0 0 -0 0 -0 -0 -0 -0 -0 -0 -0 -0 -0 -0 -0 -0 -0 0 0 0 0 0 0 -0 -0
0 0 0 0 0 0 0 0 0 0 0 0 0 0 0 0 0 0 0 0 0 0 -0 -0 -0 -0 -0 -0 -0 -0 -0 -0 -0 -0 -0 -0 -0 0 0 0 0 0 0 0
0 0 0 0 0 0 0 0 0 0 0 0 0 0 0 0 0 0 0 0 0 0 -0 -0 -0 -0 -0 -0 -0 -0 -0 -0 -0 -0 -0 -0 -0 0 0 0 0 0 0 0
0 0 0 0 0 0 0 0 0 0 0 0 0 0 0 0 0 0 0 0 0 0 0 0 -0 -0 -0 -0 -0 -0 -0 -0 -0 -0 -0 -0 -0 -0 0 0 0 0 0 0
0 0 0 0 0 0 0 0 0 0 0 0 0 0 0 0 0 0 0 0 0 0 0 -0 -0 -0 -0 -0 -0 -0 -0 -0 -0 -0 -0 -0 -0 -0 -0 -0 0 0 0 0
0 0 0 0 0 0 0 0 0 0 0 0 0 0 0 0 0 0 0 0 0 0 0 -0 -0 -0 -0 -0 -0 -0 -0 -0 -0 -0 -0 -0 -0 -0 -0 -0 0 0 0 0
0 0 0 0 0 0 0 0 0 0 0 0 0 0 0 0 0 0 0 0 0 0 0 0 -0 -0 -0 -0 -0 -0 -0 -0 -0 -0 -0 -0 -0 -0 -0 0 0 0 0 0
0 0 0 0 0 0 0 0 0 0 0 0 0 0 0 0 0 0 0 0 0 0 0 0 0 -0 -0 -0 -0 -0 -0 -0 -0 -0 -0 -0 -0 -0 -0 -0 -0 -0 0 -0
Wind_Speed_500mb
58 40 56 83 64 51 50 54 60 52 47 52 54 59 57 64 52 57 65 56 64 63 61 46 41 37 33 32 37 38 47 57 62 58 48 38 31 24 20 19 25 27 25 27
39 60 88 57 58 54 55 58 61 52 45 45 45 51 54 48 51 66 71 67 61 55 49 34 31 23 23 23 27 36 44 54 55 46 37 29 25 20 17 17 21 20 21 24
69 86 52 62 58 62 62 60 53 52 38 40 44 53 55 54 69 73 66 61 52 54 54 35 22 17 19 22 30 38 47 53 50 40 35 28 21 16 12 16 15 16 17 20
65 65 53 65 69 65 63 50 45 40 37 42 35 44 48 43 50 48 59 62 61 50 38 26 22 19 22 25 33 41 49 54 48 40 28 24 17 13 15 15 16 13 14 14
65 46 72 61 77 56 54 28 38 42 37 40 47 30 43 43 44 43 42 56 51 38 23 23 23 24 27 32 41 46 51 51 44 37 25 18 14 12 11 10 12 14 13 11
57 32 43 79 42 53 38 28 37 32 28 35 41 39 35 40 49 43 27 28 26 21 15 22 26 31 35 40 46 49 50 42 37 30 24 19 14 11 10 10 14 14 17 11
46 55 45 36 54 44 46 42 19 21 23 25 32 28 42 41 34 28 24 12 16 17 25 33 36 39 44 49 50 47 43 37 33 27 22 17 11 9 6 8 11 12 12 12
44 42 62 50 58 43 58 50 24 33 23 25 35 19 24 22 28 25 31 24 7 15 27 35 38 42 50 51 49 44 40 35 30 26 23 17 10 5 4 5 5 5 9 15
27 53 59 42 51 57 63 45 45 20 5 12 16 20 24 40 37 24 11 22 17 22 31 39 41 46 49 49 45 41 37 32 28 26 24 18 12 10 6 1 5 7 15 16
18 26 44 63 48 54 59 48 40 27 30 26 16 22 17 11 10 18 20 16 25 33 37 42 45 48 47 44 41 38 33 29 27 27 22 18 11 7 2 4 9 13 18 18
22 17 42 56 47 53 34 45 40 29 19 19 9 9 20 24 7 2 11 19 36 42 44 46 48 48 46 43 39 38 32 29 30 26 22 18 13 9 6 6 10 14 17 17
10 12 22 53 50 46 48 40 44 28 37 22 10 9 8 2 6 8 6 24 37 46 48 52 50 49 46 42 39 37 31 29 29 25 21 16 12 9 8 10 12 14 15 16
6 18 18 38 42 43 52 47 43 32 19 34 25 9 20 7 16 12 13 27 41 48 51 53 51 49 45 41 40 35 32 30 28 24 19 14 12 8 9 12 12 16 16 15
13 17 26 18 34 25 50 52 53 41 21 26 35 17 19 20 14 18 16 29 39 44 51 53 50 48 44 41 40 35 33 30 28 23 17 13 9 11 11 16 15 16 16 14
8 29 36 27 9 9 29 52 47 50 37 32 24 36 36 16 6 21 13 25 36 42 46 50 52 49 45 44 40 35 33 31 28 23 20 14 10 10 16 19 19 18 17 15
9 13 28 33 24 10 11 49 46 45 45 32 23 30 22 16 10 16 8 18 34 40 43 48 51 50 47 46 42 38 35 32 29 26 22 17 14 18 21 24 24 22 18 17
10 8 20 38 28 11 13 25 37 41 41 37 39 35 26 19 20 20 19 7 29 37 46 52 54 52 48 47 45 42 38 36 33 29 25 21 19 24 24 25 25 22 20 19
16 17 10 29 30 26 20 7 14 24 5 7 17 26 13 15 22 29 35 35 21 36 43 52 53 52 48 46 45 42 40 39 36 32 29 25 26 27 26 24 23 21 19 15
20 7 9 14 27 20 18 12 1 18 10 13 8 14 22 27 27 14 22 21 18 33 37 42 48 53 52 51 48 45 44 42 39 36 34 31 30 28 26 23 22 20 20 15
12 21 10 18 33 20 20 13 8 7 12 14 13 15 20 24 13 6 28 25 15 22 36 41 49 53 55 54 52 48 48 45 43 40 39 35 31 31 27 23 21 21 20 17
7 7 16 16 14 13 18 20 20 18 9 15 16 19 21 14 20 47 38 25 16 17 34 43 52 55 55 57 56 51 50 48 44 41 41 39 34 31 26 22 18 19 20 19
2 3 10 9 9 12 25 4 5 13 10 17 19 22 24 25 28 31 31 24 17 12 36 47 54 55 55 59 59 54 52 49 46 44 43 42 37 31 29 25 21 17 18 19
2 6 3 7 6 10 19 26 22 18 16 21 23 26 27 28 29 28 27 22 16 13 36 48 54 56 55 58 59 57 52 53 50 47 45 42 40 35 33 30 26 21 19 17
4 9 4 4 12 16 24 21 28 26 27 27 25 27 30 34 34 30 28 21 14 13 37 48 55 61 61 59 59 55 54 55 53 50 47 44 42 40 37 32 28 24 22 22
12 9 9 3 16 8 19 30 37 32 32 32 31 29 31 33 37 35 33 23 14 13 32 48 58 61 61 58 58 56 56 58 57 53 49 47 43 45 40 38 32 30 26 23
14 10 8 4 13 19 26 33 31 40 40 37 39 37 33 33 36 39 36 28 17 14 27 45 52 57 62 60 60 60 59 59 59 57 53 51 47 44 42 42 37 40 34 32
Wind_Direction_500mb
198 204 217 216 219 234 249 250 247 245 235 246 252 262 274 274 278 270 276 280 280 286 288 279 271 270 248 242 225 208 201 197 195 197 192 197 208 219 229 244 261 272 268 263
194 216 220 219 222 225 235 240 247 258 260 267 277 275 273 273 274 276 274 272 273 272 280 278 269 253 238 219 201 192 187 193 188 186 181 192 199 217 226 244 256 263 261 261
213 223 217 218 219 224 226 235 244 256 272 262 255 267 271 265 261 263 265 260 261 266 279 269 244 223 210 195 186 181 180 184 178 176 181 187 195 210 242 257 260 259 251 256
230 231 218 222 223 218 231 225 245 255 254 256 251 275 274 281 276 268 266 264 264 266 260 244 215 192 180 174 168 168 173 174 178 181 178 181 195 218 234 231 241 247 242 246
224 219 229 220 223 219 234 232 235 238 251 267 260 262 274 263 268 260 258 257 250 246 244 211 190 176 164 157 157 161 166 171 180 176 172 175 186 223 227 233 234 237 239 223
243 222 222 230 220 220 220 214 225 236 245 250 251 250 267 266 261 267 268 247 219 190 181 165 159 153 151 148 151 156 163 168 173 175 169 167 187 199 218 242 253 254 248 227
230 237 245 226 208 201 193 191 194 216 220 245 248 242 249 277 281 261 259 205 155 168 160 153 153 152 149 152 155 157 159 160 166 166 167 171 176 187 220 242 271 249 237 191
224 225 220 207 210 185 192 188 205 216 229 241 217 242 242 275 274 276 241 224 187 162 149 147 151 150 152 154 157 156 158 160 165 168 169 170 165 185 206 268 237 237 193 151
234 231 186 215 210 198 189 207 211 241 207 260 213 237 268 260 259 256 229 211 192 163 152 148 149 150 153 155 156 158 158 162 165 169 170 168 159 165 192 302 108 145 154 166
272 263 211 200 201 205 193 193 201 213 224 233 236 251 256 302 197 226 233 196 170 157 150 148 150 152 155 154 156 157 159 164 168 170 170 172 170 154 103 82 135 147 156 162
273 256 206 185 198 187 191 196 209 197 235 197 233 224 258 254 296 166 163 161 160 155 152 152 154 155 154 154 158 158 161 166 170 171 172 175 175 158 139 133 141 155 164 170
302 296 276 191 199 212 202 188 193 195 193 233 262 269 161 59 271 337 202 151 156 155 154 154 157 156 156 158 160 162 165 170 171 169 171 181 179 180 167 148 150 159 168 168
328 233 220 197 188 207 197 201 194 209 198 205 208 235 214 73 76 48 120 148 154 152 154 155 158 160 159 162 164 166 168 170 169 169 172 179 186 185 160 151 154 166 172 170
256 258 252 201 178 196 198 198 192 202 202 200 215 221 213 160 76 49 92 154 158 159 158 158 161 163 163 166 167 168 169 170 168 167 171 173 174 168 149 149 147 157 166 164
281 233 234 261 342 308 227 200 194 198 215 220 195 228 245 211 38 23 17 164 163 162 167 164 165 165 165 168 169 170 171 170 168 166 165 162 156 147 145 142 143 150 153 151
313 263 251 250 227 251 290 196 200 203 214 223 226 243 243 255 275 318 359 195 182 172 174 172 170 168 170 171 171 172 171 171 166 163 163 152 146 145 144 141 138 138 143 144
303 308 231 231 205 228 221 204 200 209 217 221 225 234 272 294 306 314 345 293 210 186 179 179 177 171 172 173 172 172 170 168 167 163 163 154 147 147 141 140 138 141 145 145
264 313 267 224 197 209 93 58 227 203 40 302 279 273 305 320 308 307 290 269 250 203 193 183 180 173 172 173 173 171 171 169 168 166 164 157 150 149 147 145 145 145 149 148
221 255 273 200 202 152 147 55 24 195 94 21 337 299 306 311 308 268 21 3 267 211 198 196 185 174 170 174 174 172 173 172 172 169 167 161 159 153 147 146 146 153 154 149
243 240 271 211 194 191 60 342 271 239 158 32 344 328 332 332 259 131 0 352 341 193 192 193 186 179 171 174 175 174 176 176 176 173 172 168 162 159 152 144 139 147 152 152
183 188 218 253 198 105 0 347 159 203 73 1 349 343 337 320 320 310 317 320 307 227 200 189 185 185 177 174 175 177 179 181 179 176 175 174 172 168 166 155 139 142 143 152
42 206 182 251 218 134 353 73 321 31 360 359 352 352 341 321 313 311 313 308 299 240 195 190 185 184 182 178 178 179 183 180 179 178 178 179 180 178 183 174 163 149 151 149
105 4 40 2 48 22 72 67 53 28 3 2 348 347 342 340 332 324 321 311 287 248 197 190 187 184 184 185 182 182 183 180 180 181 182 183 184 181 186 179 176 167 159 158
39 16 34 276 342 77 61 48 25 11 358 353 348 348 348 346 346 339 333 320 297 247 200 193 189 188 184 188 188 187 182 180 182 183 185 186 186 186 187 188 189 183 178 176
359 344 353 8 20 180 36 6 356 355 356 353 353 348 351 352 355 349 342 327 297 257 205 198 195 192 188 185 191 188 185 182 184 185 186 187 189 191 192 191 194 192 194 187
357 4 8 3 348 317 323 337 345 342 343 345 344 342 350 355 354 356 351 342 313 267 215 205 200 194 191 188 188 189 187 187 186 186 189 191 191 194 197 197 200 194 196 197
Wind_Speed_850mb
58 40 56 83 64 51 50 54 60 52 47 52 54 59 57 64 52 57 65 56 64 63 61 46 41 37 33 32 37 38 47 57 62 58 48 38 31 24 20 19 25 27 25 27
39 60 88 57 58 54 55 58 61 52 45 45 45 51 54 48 51 66 71 67 61 55 49 34 31 23 23 23 27 36 44 54 55 46 37 29 25 20 17 17 21 20 21 24
69 86 52 62 58 62 62 60 53 52 38 40 44 53 55 54 69 73 66 61 52 54 54 35 22 17 19 22 30 38 47 53 50 40 35 28 21 16 12 16 15 16 17 20
65 65 53 65 69 65 63 50 45 40 37 42 35 44 48 43 50 48 59 62 61 50 38 26 22 19 22 25 33 41 49 54 48 40 28 24 17 13 15 15 16 13 14 14
65 46 72 61 77 56 54 28 38 42 37 40 47 30 43 43 44 43 42 56 51 38 23 23 23 24 27 32 41 46 51 51 44 37 25 18 14 12 11 10 12 14 13 11
57 32 43 79 42 53 38 28 37 32 28 35 41 39 35 40 49 43 27 28 26 21 15 22 26 31 35 40 46 49 50 42 37 30 24 19 14 11 10 10 14 14 17 11
46 55 45 36 54 44 46 42 19 21 23 25 32 28 42 41 34 28 24 12 16 17 25 33 36 39 44 49 50 47 43 37 33 27 22 17 11 9 6 8 11 12 12 12
44 42 62 50 58 43 58 50 24 33 23 25 35 19 24 22 28 25 31 24 7 15 27 35 38 42 50 51 49 44 40 35 30 26 23 17 10 5 4 5 5 5 9 15
27 53 59 42 51 57 63 45 45 20 5 12 16 20 24 40 37 24 11 22 17 22 31 39 41 46 49 49 45 41 37 32 28 26 24 18 12 10 6 1 5 7 15 16
18 26 44 63 48 54 59 48 40 27 30 26 16 22 17 11 10 18 20 16 25 33 37 42 45 48 47 44 41 38 33 29 27 27 22 18 11 7 2 4 9 13 18 18
22 17 42 56 47 53 34 45 40 29 19 19 9 9 20 24 7 2 11 19 36 42 44 46 48 48 46 43 39 38 32 29 30 26 22 18 13 9 6 6 10 14 17 17
10 12 22 53 50 46 48 40 44 28 37 22 10 9 8 2 6 8 6 24 37 46 48 52 50 49 46 42 39 37 31 29 29 25 21 16 12 9 8 10 12 14 15 16
6 18 18 38 42 43 52 47 43 32 19 34 25 9 20 7 16 12 13 27 41 48 51 53 51 49 45 41 40 35 32 30 28 24 19 14 12 8 9 12 12 16 16 15
13 17 26 18 34 25 50 52 53 41 21 26 35 17 19 20 14 18 16 29 39 44 51 53 50 48 44 41 40 35 33 30 28 23 17 13 9 11 11 16 15 16 16 14
8 29 36 27 9 9 29 52 47 50 37 32 24 36 36 16 6 21 13 25 36 42 46 50 52 49 45 44 40 35 33 31 28 23 20 14 10 10 16 19 19 18 17 15
9 13 28 33 24 10 11 49 46 45 45 32 23 30 22 16 10 16 8 18 34 40 43 48 51 50 47 46 42 38 35 32 29 26 22 17 14 18 21 24 24 22 18 17
10 8 20 38 28 11 13 25 37 41 41 37 39 35 26 19 20 20 19 7 29 37 46 52 54 52 48 47 45 42 38 36 33 29 25 21 19 24 24 25 25 22 20 19
16 17 10 29 30 26 20 7 14 24 5 7 17 26 13 15 22 29 35 35 21 36 43 52 53 52 48 46 45 42 40 39 36 32 29 25 26 27 26 24 23 21 19 15
20 7 9 14 27 20 18 12 1 18 10 13 8 14 22 27 27 14 22 21 18 33 37 42 48 53 52 51 48 45 44 42 39 36 34 31 30 28 26 23 22 20 20 15
12 21 10 18 33 20 20 13 8 7 12 14 13 15 20 24 13 6 28 25 15 22 36 41 49 53 55 54 52 48 48 45 43 40 39 35 31 31 27 23 21 21 20 17
7 7 16 16 14 13 18 20 20 18 9 15 16 19 21 14 20 47 38 25 16 17 34 43 52 55 55 57 56 51 50 48 44 41 41 39 34 31 26 22 18 19 20 19
2 3 10 9 9 12 25 4 5 13 10 17 19 22 24 25 28 31 31 24 17 12 36 47 54 55 55 59 59 54 52 49 46 44 43 42 37 31 29 25 21 17 18 19
2 6 3 7 6 10 19 26 22 18 16 21 23 26 27 28 29 28 27 22 16 13 36 48 54 56 55 58 59 57 52 53 50 47 45 42 40 35 33 30 26 21 19 17
4 9 4 4 12 16 24 21 28 26 27 27 25 27 30 34 34 30 28 21 14 13 37 48 55 61 61 59 59 55 54 55 53 50 47 44 42 40 37 32 28 24 22 22
12 9 9 3 16 8 19 30 37 32 32 32 31 29 31 33 37 35 33 23 14 13 32 48 58 61 61 58 58 56 56 58 57 53 49 47 43 45 40 38 32 30 26 23
14 10 8 4 13 19 26 33 31 40 40 37 39 37 33 33 36 39 36 28 17 14 27 45 52 57 62 60 60 60 59 59 59 57 53 51 47 44 42 42 37 40 34 32
Wind_Direction_850mb
198 204 217 216 219 234 249 250 247 245 235 246 252 262 274 274 278 270 276 280 280 286 288 279 271 270 248 242 225 208 201 197 195 197 192 197 208 219 229 244 261 272 268 263
194 216 220 219 222 225 235 240 247 258 260 267 277 275 273 273 274 276 274 272 273 272 280 278 269 253 238 219 201 192 187 193 188 186 181 192 199 217 226 244 256 263 261 261
213 223 217 218 219 224 226 235 244 256 272 262 255 267 271 265 261 263 265 260 261 266 279 269 244 223 210 195 186 181 180 184 178 176 181 187 195 210 242 257 260 259 251 256
230 231 218 222 223 218 231 225 245 255 254 256 251 275 274 281 276 268 266 264 264 266 260 244 215 192 180 174 168 168 173 174 178 181 178 181 195 218 234 231 241 247 242 246
224 219 229 220 223 219 234 232 235 238 251 267 260 262 274 263 268 260 258 257 250 246 244 211 190 176 164 157 157 161 166 171 180 176 172 175 186 223 227 233 234 237 239 223
243 222 222 230 220 220 220 214 225 236 245 250 251 250 267 266 261 267 268 247 219 190 181 165 159 153 151 148 151 156 163 168 173 175 169 167 187 199 218 242 253 254 248 227
230 237 245 226 208 201 193 191 194 216 220 245 248 242 249 277 281 261 259 205 155 168 160 153 153 152 149 152 155 157 159 160 166 166 167 171 176 187 220 242 271 249 237 191
224 225 220 207 210 185 192 188 205 216 229 241 217 242 242 275 274 276 241 224 187 162 149 147 151 150 152 154 157 156 158 160 165 168 169 170 165 185 206 268 237 237 193 151
234 231 186 215 210 198 189 207 211 241 207 260 213 237 268 260 259 256 229 211 192 163 152 148 149 150 153 155 156 158 158 162 165 169 170 168 159 165 192 302 108 145 154 166
272 263 211 200 201 205 193 193 201 213 224 233 236 251 256 302 197 226 233 196 170 157 150 148 150 152 155 154 156 157 159 164 168 170 170 172 170 154 103 82 135 147 156 162
273 256 206 185 198 187 191 196 209 197 235 197 233 224 258 254 296 166 163 161 160 155 152 152 154 155 154 154 158 158 161 166 170 171 172 175 175 158 139 133 141 155 164 170
302 296 276 191 199 212 202 188 193 195 193 233 262 269 161 59 271 337 202 151 156 155 154 154 157 156 156 158 160 162 165 170 171 169 171 181 179 180 167 148 150 159 168 168
328 233 220 197 188 207 197 201 194 209 198 205 208 235 214 73 76 48 120 148 154 152 154 155 158 160 159 162 164 166 168 170 169 169 172 179 186 185 160 151 154 166 172 170
256 258 252 201 178 196 198 198 192 202 202 200 215 221 213 160 76 49 92 154 158 159 158 158 161 163 163 166 167 168 169 170 168 167 171 173 174 168 149 149 147 157 166 164
281 233 234 261 342 308 227 200 194 198 215 220 195 228 245 211 38 23 17 164 163 162 167 164 165 165 165 168 169 170 171 170 168 166 165 162 156 147 145 142 143 150 153 151
313 263 251 250 227 251 290 196 200 203 214 223 226 243 243 255 275 318 359 195 182 172 174 172 170 168 170 171 171 172 171 171 166 163 163 152 146 145 144 141 138 138 143 144
303 308 231 231 205 228 221 204 200 209 217 221 225 234 272 294 306 314 345 293 210 186 179 179 177 171 172 173 172 172 170 168 167 163 163 154 147 147 141 140 138 141 145 145
264 313 267 224 197 209 93 58 227 203 40 302 279 273 305 320 308 307 290 269 250 203 193 183 180 173 172 173 173 171 171 169 168 166 164 157 150 149 147 145 145 145 149 148
221 255 273 200 202 152 147 55 24 195 94 21 337 299 306 311 308 268 21 3 267 211 198 196 185 174 170 174 174 172 173 172 172 169 167 161 159 153 147 146 146 153 154 149
243 240 271 211 194 191 60 342 271 239 158 32 344 328 332 332 259 131 0 352 341 193 192 193 186 179 171 174 175 174 176 176 176 173 172 168 162 159 152 144 139 147 152 152
183 188 218 253 198 105 0 347 159 203 73 1 349 343 337 320 320 310 317 320 307 227 200 189 185 185 177 174 175 177 179 181 179 176 175 174 172 168 166 155 139 142 143 152
42 206 182 251 218 134 353 73 321 31 360 359 352 352 341 321 313 311 313 308 299 240 195 190 185 184 182 178 178 179 183 180 179 178 178 179 180 178 183 174 163 149 151 149
105 4 40 2 48 22 72 67 53 28 3 2 348 347 342 340 332 324 321 311 287 248 197 190 187 184 184 185 182 182 183 180 180 181 182 183 184 181 186 179 176 167 159 158
39 16 34 276 342 77 61 48 25 11 358 353 348 348 348 346 346 339 333 320 297 247 200 193 189 188 184 188 188 187 182 180 182 183 185 186 186 186 187 188 189 183 178 176
359 344 353 8 20 180 36 6 356 355 356 353 353 348 351 352 355 349 342 327 297 257 205 198 195 192 188 185 191 188 185 182 184 185 186 187 189 191 192 191 194 192 194 187
357 4 8 3 348 317 323 337 345 342 343 345 344 342 350 355 354 356 351 342 313 267 215 205 200 194 191 188 188 189 187 187 186 186 189 191 191 194 197 197 200 194 196 197